Home > Weather > Rio Branco > Past weeks

Flag for Brazil Weather for the Past 2 Weeks in Rio Branco, Acre, Brazil

Now
81 °F

Scattered clouds.


Feels Like: 86 °F
Forecast: N/A
Wind: 3 mph from North

Location: Rio Branco Airport

Current Time: Feb 6, 2016 at 4:51:41 PM

Latest Report: Feb 6, 2016 at 4:00 PM


Visibility: N/A

Pressure: 29.83 "Hg

Humidity: 84%

Dew point: 75 °F

Location of Rio BrancoLocation

Historic Weather in Rio Branco — Graph

°F

Rio Branco Temperature Yesterday

Maximum temperature yesterday: 88 °F (at 2:00 PM)
Minimum temperature yesterday: 75 °F (at 1:00 AM)
Average temperature yesterday: 80 °F

High & Low Weather Summary for the Past Weeks

 TemperatureHumidityPressure
High95 °F (Jan 23, 3:00 PM)100% (Jan 23, 6:00 AM)29.98 "Hg (Jan 23, 6:00 AM)
Low72 °F (Feb 1, 12:00 AM)49% (Jan 23, 2:00 PM)29.24 "Hg (Jan 27, 8:00 AM)
Average80 °F84%29.84 "Hg
* Reported Jan 22 3:00 PM — Feb 6 3:00 PM, Rio Branco, Weather by CustomWeather, © 2016

Note: Actual official high and low records may vary slightly from our data, if they occured in-between our weather recording intervals... More about our weather records

Advertising

Rio Branco Weather History for the Previous 24 Hours

 ConditionsComfort  
Time TempWeatherWind HumidityBarometerVisibility
3:00 PM
Sat, Feb 6
81 °FScattered clouds.5 mph79%29.86 "HgN/A
2:00 PM82 °FPartly sunny.10 mph74%29.92 "HgN/A
1:00 PM81 °FBroken clouds.12 mph79%29.92 "HgN/A
12:00 PM82 °FPartly sunny.9 mph79%29.95 "HgN/A
11:00 AM81 °FPartly sunny.13 mph84%29.98 "HgN/A
10:00 AM81 °FPartly sunny.10 mph84%29.98 "HgN/A
9:00 AM77 °FPartly sunny.5 mph94%29.98 "HgN/A
8:00 AM75 °FPartly sunny.3 mph94%29.98 "HgN/A
7:00 AM75 °FPartly sunny.5 mph94%29.95 "HgN/A
6:00 AM77 °FPassing clouds.3 mph94%29.92 "HgN/A
5:00 AM75 °FPartly cloudy.2 mph100%29.89 "HgN/A
4:00 AM77 °FPassing clouds.6 mph94%29.86 "HgN/A
3:00 AM77 °FPassing clouds.6 mph94%29.86 "HgN/A
2:00 AM75 °FPassing clouds.No wind100%29.86 "HgN/A
1:00 AM79 °FThundershowers. Passing clouds.3 mph89%N/AN/A
12:00 AM77 °FThundershowers. Passing clouds.No wind94%N/AN/A
10:00 PM
Fri, Feb 5
77 °FThundershowers. Passing clouds.2 mph94%29.89 "HgN/A
9:00 PM77 °FThundershowers. Passing clouds.2 mph94%29.89 "HgN/A
8:00 PM77 °FThundershowers. Passing clouds.1 mph94%29.86 "HgN/A
7:00 PM77 °FThundershowers. Passing clouds.3 mph94%29.83 "HgN/A
6:00 PM81 °FPartly sunny.2 mph79%29.80 "HgN/A
5:00 PM81 °FPartly sunny.12 mph79%29.77 "HgN/A
4:00 PM88 °FPartly sunny.8 mph62%29.77 "HgN/A
Weather by CustomWeather, © 2016

See weather overviewHow to use our weather pages